Weather in Putila

Ukraine / Chernovtci District     47°59′42″N   25°06′13″E
temp.,
°C
wind,
m/s
gust,
m/s
humid.,
%
clouds,
%
prec.,
mm/h
press.,
hPa
HPBL,
m
5 december, sun
sun523:00−7ssw228632 0.0 101229
02:00−7ssw2287100 0.0 101133
05:00−6ssw2291100 0.0 101032
08:00−3ssw2291100 0.0 100940
11:00+1ssw2380100 0.0 1008329
14:00+2ssw1378100 0.0 1007484
17:00−2ssw2195100 0.0 100914
20:00−3ssw2194100 0.0 100921
6 december, mon
mon623:00−4ssw229174 0.0 101020
02:00−1sw1192100 0.0 100935
05:00+1ssw1196100 0.1 100845
08:00+1e0099100 0.1 100820
11:00+2ne1193100 0.0 1008273
14:00+2nne129389 0.1 1006266
17:00−1nne2299100 0.2 1009113
20:00−2n1298100 0.5 1010120
7 december, tue
tue723:00−2nne1199100 0.1 1010160
02:00−2ne1297100 0.5 1009167
05:00−3nne1297100 1.4 1010157
08:00−3nne1297100 1.9 1010174
11:00−2nne1294100 1.4 1010305
14:00−2nne2395100 3.3 1009377
17:00−4nne1398100 3.1 1011262
20:00−4nnw129898 4.3 1011192
8 december, wed
wed823:00−6nw019994 0.5 101226
02:00−6nnw129896 0.8 101273
05:00−7nnw119997 0.1 101332
08:00−8w1198100 0.3 101425
11:00−5nnw1191100 0.1 1013260
14:00−3nnw1290100 0.3 1011300
17:00−8w009990 0.0 101410
20:00−9ssw119873 0.1 101510
9 december, thu
thu923:00−7ssw219736 0.0 101412
02:00−7ssw22967 0.0 101420
05:00−8ssw229574 0.0 101516
08:00−8ssw229452 0.0 101516
11:000nnw1188100 0.0 101137
14:00+3se11975 0.0 100957
17:00−1ssw2296100 0.0 101017
20:00−3ssw2286100 0.0 101022